When you browse on this site, cookies collect data to enhance your experience and personalize the content and advertising you see.
Visit our Privacy Policy to learn more. By continuing to use the site, you agree to this use of cookies and data.
  • In Latvia
  • List of Countries
  • For 7 days
  • Water Temperature
  • Weather Map
  • Weather Widgets
  • user-avatar
    Login

    Hourly Weather Aleksandrovka

    Today, 20 October, Sunday

    Time Temperature Precipitation Wind Pressure Humidity
    00:00 +9°C° 0 mm 2 mps 760 mmHg 91%
    01:00 +9°C° 0 mm 2 mps 760 mmHg 91%
    02:00 +8°C° 0 mm 2 mps 760 mmHg 91%
    03:00 +9°C° 0 mm 1 mps 761 mmHg 94%
    04:00 +8°C° 0 mm 2 mps 761 mmHg 93%
    05:00 +7°C° 0 mm 2 mps 761 mmHg 92%
    06:00 +7°C° 0 mm 2 mps 761 mmHg 92%
    07:00 +8°C° 0 mm 2 mps 762 mmHg 87%
    08:00 +8°C° 0 mm 2 mps 762 mmHg 82%
    09:00 +9°C° 0 mm 2 mps 762 mmHg 75%
    10:00 +10°C° 0 mm 2 mps 762 mmHg 72%
    11:00 +12°C° 0 mm 2 mps 762 mmHg 69%
    12:00 +12°C° 0 mm 1 mps 762 mmHg 66%
    13:00 +13°C° 0 mm 1 mps 762 mmHg 65%
    14:00 +13°C° 0 mm 1 mps 762 mmHg 64%
    15:00 +13°C° 0 mm 1 mps 762 mmHg 63%
    16:00 +13°C° 0 mm 1 mps 762 mmHg 66%
    17:00 +12°C° 0 mm 1 mps 762 mmHg 70%
    18:00 +11°C° 0 mm 1 mps 762 mmHg 73%
    19:00 +11°C° 0 mm 1 mps 762 mmHg 74%
    20:00 +11°C° 0 mm 1 mps 762 mmHg 74%
    21:00 +9°C° 0 mm 2 mps 762 mmHg 75%
    22:00 +9°C° 0 mm 2 mps 762 mmHg 75%
    23:00 +9°C° 0 mm 2 mps 762 mmHg 75%

    Tomorrow, 21 October, Monday

    Time Temperature Precipitation Wind Pressure Humidity
    00:00 +9°C° 0 mm 2 mps 762 mmHg 76%
    01:00 +9°C° 0 mm 2 mps 762 mmHg 77%
    02:00 +8°C° 0 mm 2 mps 762 mmHg 77%
    03:00 +8°C° 0 mm 2 mps 762 mmHg 78%
    04:00 +8°C° 0 mm 2 mps 762 mmHg 80%
    05:00 +8°C° 0 mm 2 mps 762 mmHg 81%
    06:00 +8°C° 0 mm 2 mps 762 mmHg 82%
    07:00 +9°C° 0 mm 2 mps 762 mmHg 78%
    08:00 +10°C° 0 mm 2 mps 762 mmHg 75%
    09:00 +12°C° 0 mm 2 mps 762 mmHg 71%
    10:00 +12°C° 0 mm 3 mps 762 mmHg 67%
    11:00 +13°C° 0 mm 3 mps 762 mmHg 63%
    12:00 +16°C° 0 mm 3 mps 761 mmHg 59%
    13:00 +15°C° 0 mm 4 mps 761 mmHg 58%
    14:00 +15°C° 0 mm 4 mps 761 mmHg 58%
    15:00 +15°C° 0 mm 4 mps 760 mmHg 57%
    16:00 +14°C° 0 mm 4 mps 760 mmHg 61%
    17:00 +13°C° 0 mm 4 mps 760 mmHg 65%
    18:00 +12°C° 0 mm 4 mps 760 mmHg 70%
    19:00 +12°C° 0 mm 4 mps 759 mmHg 71%
    20:00 +12°C° 0 mm 4 mps 759 mmHg 72%
    21:00 +11°C° 0 mm 4 mps 759 mmHg 73%
    22:00 +11°C° 0 mm 4 mps 758 mmHg 73%
    23:00 +10°C° 0 mm 5 mps 758 mmHg 73%

    Day after tomorrow, 22 October, Tuesday

    Time Temperature Precipitation Wind Pressure Humidity
    00:00 +10°C° 0 mm 5 mps 758 mmHg 73%
    01:00 +10°C° 0 mm 5 mps 757 mmHg 73%
    02:00 +10°C° 0 mm 5 mps 757 mmHg 73%
    03:00 +10°C° 0 mm 5 mps 757 mmHg 73%
    04:00 +10°C° 0 mm 5 mps 757 mmHg 75%
    05:00 +10°C° 0 mm 5 mps 756 mmHg 77%
    06:00 +10°C° 0 mm 5 mps 756 mmHg 79%
    07:00 +10°C° 0 mm 5 mps 756 mmHg 78%
    08:00 +12°C° 0 mm 5 mps 756 mmHg 78%
    09:00 +12°C° 0 mm 4 mps 757 mmHg 77%
    10:00 +12°C° 0 mm 4 mps 757 mmHg 77%
    11:00 +13°C° 0 mm 3 mps 757 mmHg 76%
    12:00 +14°C° 0 mm 2 mps 757 mmHg 76%
    13:00 +15°C° 0 mm 2 mps 757 mmHg 72%
    14:00 +16°C° 0 mm 2 mps 757 mmHg 68%
    15:00 +16°C° 0 mm 2 mps 757 mmHg 64%
    16:00 +15°C° 0 mm 2 mps 758 mmHg 68%
    17:00 +13°C° 0 mm 3 mps 758 mmHg 71%
    18:00 +12°C° 0 mm 3 mps 758 mmHg 75%
    19:00 +11°C° 0 mm 3 mps 758 mmHg 77%
    20:00 +11°C° 0 mm 3 mps 759 mmHg 79%
    21:00 +10°C° 0 mm 3 mps 759 mmHg 82%
    22:00 +10°C° 0 mm 2 mps 759 mmHg 83%
    23:00 +9°C° 0 mm 2 mps 759 mmHg 85%

    23 October, Wednesday

    Time Temperature Precipitation Wind Pressure Humidity
    00:00 +9°C° 0 mm 2 mps 759 mmHg 86%
    01:00 +8°C° 0 mm 2 mps 759 mmHg 87%
    02:00 +8°C° 0 mm 2 mps 759 mmHg 88%
    03:00 +7°C° 0 mm 2 mps 760 mmHg 88%
    04:00 +7°C° 0 mm 2 mps 760 mmHg 88%
    05:00 +7°C° 0 mm 1 mps 760 mmHg 88%
    06:00 +7°C° 0 mm 1 mps 760 mmHg 88%
    07:00 +7°C° 0 mm 1 mps 760 mmHg 84%
    08:00 +8°C° 0 mm 1 mps 760 mmHg 80%
    09:00 +9°C° 0 mm 1 mps 760 mmHg 76%
    10:00 +10°C° 0 mm 1 mps 760 mmHg 72%
    11:00 +11°C° 0 mm 1 mps 760 mmHg 67%
    12:00 +12°C° 0 mm 1 mps 760 mmHg 63%
    13:00 +13°C° 0 mm 2 mps 760 mmHg 61%
    14:00 +13°C° 0 mm 2 mps 759 mmHg 60%
    15:00 +14°C° 0 mm 2 mps 759 mmHg 58%
    16:00 +13°C° 0 mm 2 mps 759 mmHg 62%
    17:00 +12°C° 0 mm 2 mps 759 mmHg 65%
    18:00 +12°C° 0 mm 2 mps 759 mmHg 69%
    19:00 +10°C° 0 mm 2 mps 759 mmHg 70%
    20:00 +10°C° 0 mm 3 mps 758 mmHg 71%
    21:00 +10°C° 0 mm 3 mps 758 mmHg 72%
    22:00 +10°C° 0 mm 3 mps 758 mmHg 74%
    23:00 +10°C° 0 mm 3 mps 758 mmHg 75%

    24 October, Thursday

    Time Temperature Precipitation Wind Pressure Humidity
    00:00 +9°C° 0 mm 3 mps 758 mmHg 76%
    01:00 +9°C° 0 mm 3 mps 758 mmHg 77%
    02:00 +9°C° 0 mm 3 mps 758 mmHg 78%
    03:00 +9°C° 0 mm 3 mps 759 mmHg 79%
    04:00 +9°C° 0 mm 3 mps 758 mmHg 81%
    05:00 +8°C° 0 mm 3 mps 758 mmHg 84%
    06:00 +8°C° 0 mm 3 mps 758 mmHg 86%
    07:00 +9°C° 0 mm 3 mps 758 mmHg 82%
    08:00 +10°C° 0 mm 3 mps 759 mmHg 78%
    09:00 +11°C° 0 mm 3 mps 759 mmHg 75%
    10:00 +13°C° 0 mm 3 mps 759 mmHg 69%
    11:00 +14°C° 0 mm 3 mps 758 mmHg 64%
    12:00 +16°C° 0 mm 3 mps 758 mmHg 59%
    13:00 +17°C° 0 mm 3 mps 758 mmHg 57%
    14:00 +17°C° 0 mm 3 mps 758 mmHg 56%
    15:00 +17°C° 0 mm 3 mps 758 mmHg 55%
    16:00 +16°C° 0 mm 2 mps 758 mmHg 60%
    17:00 +15°C° 0 mm 2 mps 758 mmHg 65%
    18:00 +14°C° 0 mm 1 mps 758 mmHg 69%
    19:00 +13°C° 0 mm 2 mps 758 mmHg 71%
    20:00 +13°C° 0 mm 2 mps 759 mmHg 73%
    21:00 +12°C° 0 mm 2 mps 759 mmHg 74%
    22:00 +12°C° 0 mm 1 mps 759 mmHg 75%
    23:00 +12°C° 0 mm 1 mps 759 mmHg 77%

    25 October, Friday

    Time Temperature Precipitation Wind Pressure Humidity
    00:00 +11°C° 0 mm 1 mps 759 mmHg 78%
    01:00 +11°C° 0 mm 1 mps 759 mmHg 78%
    02:00 +11°C° 0 mm 1 mps 759 mmHg 79%
    03:00 +11°C° 0 mm 1 mps 759 mmHg 79%
    04:00 +10°C° 0 mm 1 mps 759 mmHg 80%
    05:00 +10°C° 0 mm 1 mps 759 mmHg 81%
    06:00 +10°C° 0 mm 1 mps 759 mmHg 82%
    07:00 +11°C° 0 mm 1 mps 760 mmHg 77%
    08:00 +12°C° 0 mm 1 mps 760 mmHg 73%
    09:00 +12°C° 0 mm 0 mps 760 mmHg 69%
    10:00 +14°C° 0 mm 1 mps 760 mmHg 64%
    11:00 +15°C° 0 mm 1 mps 760 mmHg 59%
    12:00 +16°C° 0 mm 2 mps 760 mmHg 54%
    13:00 +16°C° 0 mm 2 mps 760 mmHg 52%
    14:00 +16°C° 0 mm 2 mps 760 mmHg 51%
    15:00 +16°C° 0 mm 2 mps 760 mmHg 49%
    16:00 +15°C° 0 mm 2 mps 760 mmHg 52%
    17:00 +13°C° 0 mm 2 mps 760 mmHg 56%
    18:00 +12°C° 0 mm 1 mps 760 mmHg 59%
    19:00 +12°C° 0 mm 1 mps 760 mmHg 61%
    20:00 +11°C° 0 mm 1 mps 760 mmHg 62%
    21:00 +11°C° 0 mm 1 mps 760 mmHg 64%
    22:00 +11°C° 0 mm 1 mps 760 mmHg 66%
    23:00 +10°C° 0 mm 1 mps 760 mmHg 68%
    Show more